This is the latest recevied weather packets stored in our database for station/object K7FLA. If no packets are shown the sender has not sent any weather packets the latest 1 day(s).
| Time | Temp. | Humidity | Pressure | Rain* | Wind** | Luminosity | Snow |
|---|---|---|---|---|---|---|---|
| 1778033142 | 12.78° C | 66% | 1094.7 hPa | 0 mm | 1.79 m/s, 149° | 8 W/m² | - |
| 1778032839 | 12.78° C | 65% | 1094.3 hPa | 0 mm | 1.34 m/s, 231° | 6 W/m² | - |
| 1778032536 | 12.78° C | 64% | 1094.3 hPa | 0 mm | 0.89 m/s, 195° | 8 W/m² | - |
| 1778032233 | 12.78° C | 64% | 1094.3 hPa | 0 mm | 1.34 m/s, 238° | 8 W/m² | - |
| 1778031930 | 13.33° C | 63% | 1094.5 hPa | 0 mm | 1.79 m/s, 134° | 11 W/m² | - |
| 1778031626 | 13.33° C | 63% | 1094.2 hPa | 0 mm | 1.79 m/s, 136° | 12 W/m² | - |
| 1778031325 | 13.33° C | 63% | 1094.2 hPa | 0 mm | 0.89 m/s, 84° | 14 W/m² | - |
| 1778031021 | 13.33° C | 63% | 1094 hPa | 0 mm | 0.89 m/s, 166° | 16 W/m² | - |
| 1778030717 | 13.33° C | 62% | 1094 hPa | 0 mm | 0.45 m/s, 242° | 20 W/m² | - |
| 1778030414 | 13.33° C | 62% | 1094.2 hPa | 0 mm | 0.89 m/s, 167° | 20 W/m² | - |
| 1778030112 | 13.89° C | 61% | 1094 hPa | 0 mm | 0.45 m/s, 137° | 27 W/m² | - |
| 1778029808 | 13.33° C | 61% | 1094 hPa | 0 mm | 0.45 m/s, 212° | 28 W/m² | - |
| 1778029508 | 13.33° C | 61% | 1093.9 hPa | 0 mm | 0.89 m/s, 191° | 23 W/m² | - |
| 1778029203 | 13.89° C | 60% | 1093.9 hPa | 0 mm | 1.34 m/s, 169° | 27 W/m² | - |
| 1778028901 | 13.89° C | 59% | 1094 hPa | 0 mm | 2.24 m/s, 187° | 35 W/m² | - |
| 1778028596 | 13.89° C | 59% | 1093.8 hPa | 0 mm | 1.79 m/s, 208° | 32 W/m² | - |
| 1778028294 | 13.89° C | 58% | 1093.8 hPa | 0 mm | 0.89 m/s, 212° | 13 W/m² | - |
| 1778027990 | 13.89° C | 58% | 1093.9 hPa | 0 mm | 2.24 m/s, 242° | 11 W/m² | - |
| 1778027686 | 13.89° C | 58% | 1094 hPa | 0 mm | 2.68 m/s, 206° | 10 W/m² | - |
| 1778027383 | 13.89° C | 58% | 1094 hPa | 0 mm | 2.68 m/s, 233° | 14 W/m² | - |
| 1778027079 | 13.89° C | 57% | 1093.9 hPa | 0 mm | 2.68 m/s, 206° | 19 W/m² | - |
| 1778026774 | 14.44° C | 57% | 1093.7 hPa | 0 mm | 2.24 m/s, 212° | 33 W/m² | - |
| 1778026472 | 14.44° C | 56% | 1093.8 hPa | 0 mm | 2.24 m/s, 221° | 26 W/m² | - |
| 1778026169 | 14.44° C | 56% | 1094.1 hPa | 0 mm | 1.79 m/s, 258° | 25 W/m² | - |
| 1778025866 | 14.44° C | 56% | 1093.9 hPa | 0 mm | 2.68 m/s, 243° | 28 W/m² | - |
* Rain latest hour (hover to see other rain measurements)
** Current wind speed in m/s (hover to see current wind gust speed)